CW1238 Weather Reports


Display with metric or nautical units.
time (UTC)temp
F
wind
direction
speed
MPH
gust
MPH
rain 1hr
in
rain 24hr
in
rain mn
in
humidity
%
barometer
mb
20260509163813 62 304 4.0 8.0 0.00 0.00 0.00 50 1045.0
20260509163310 63 311 2.0 9.0 0.00 0.00 0.00 49 1045.0
20260509162809 63 81 4.0 7.0 0.00 0.00 0.00 49 1044.8
20260509162306 63 290 6.0 8.0 0.00 0.00 0.00 48 1044.8
20260509161759 62 206 4.0 8.0 0.00 0.00 0.00 49 1044.9
20260509161255 62 306 5.0 8.0 0.00 0.00 0.00 50 1044.9
20260509160750 62 270 2.0 4.0 0.00 0.00 0.00 51 1044.9
20260509160247 61 343 5.0 9.0 0.00 0.00 0.00 54 1044.7
20260509155742 60 281 7.0 9.0 0.00 0.00 0.00 54 1044.7
20260509155239 62 197 2.0 6.0 0.00 0.00 0.00 58 1044.6
20260509154736 61 341 2.0 9.0 0.00 0.00 0.00 55 1044.6
20260509154233 60 210 6.0 8.0 0.00 0.00 0.00 58 1044.7
20260509153730 60 248 6.0 9.0 0.00 0.00 0.00 56 1044.7
20260509153225 60 276 4.0 8.0 0.00 0.00 0.00 57 1044.6
20260509152722 61 272 4.0 7.0 0.00 0.00 0.00 57 1044.6
20260509152218 60 22 3.0 9.0 0.00 0.00 0.00 60 1044.5
20260509151715 59 248 6.0 9.0 0.00 0.00 0.00 58 1044.6
20260509151212 59 268 5.0 10.0 0.00 0.00 0.00 58 1044.4
20260509150710 59 297 8.0 10.0 0.00 0.00 0.00 58 1044.3
20260509150208 60 274 8.0 11.0 0.00 0.00 0.00 56 1044.3
20260509145704 60 267 4.0 7.0 0.00 0.00 0.00 57 1044.1
20260509145159 60 246 3.0 6.0 0.00 0.00 0.00 56 1044.1
20260509144656 59 44 1.0 4.0 0.00 0.00 0.00 59 1044.2
20260509144153 59 339 3.0 7.0 0.00 0.00 0.00 59 1044.2
20260509143650 58 295 6.0 7.0 0.00 0.00 0.00 59 1044.0
20260509143148 59 255 5.0 8.0 0.00 0.00 0.00 58 1043.9
20260509142643 58 335 4.0 6.0 0.00 0.00 0.00 59 1043.9
20260509142140 58 269 4.0 7.0 0.00 0.00 0.00 58 1043.9
20260509141636 58 329 6.0 10.0 0.00 0.00 0.00 57 1043.9
20260509141132 57 36 5.0 11.0 0.00 0.00 0.00 60 1043.9
20260509140629 57 276 4.0 9.0 0.00 0.00 0.00 59 1043.8
20260509140127 57 296 4.0 6.0 0.00 0.00 0.00 58 1043.9
20260509135624 57 301 3.0 7.0 0.00 0.00 0.00 57 1043.8
20260509135122 57 306 3.0 4.0 0.00 0.00 0.00 56 1043.5
20260509134618 58 251 4.0 4.0 0.00 0.00 0.00 55 1043.5
20260509134116 58 305 2.0 2.0 0.00 0.00 0.00 51 1043.4
20260509133613 59 310 3.0 4.0 0.00 0.00 0.00 51 1043.5
20260509133110 57 250 1.0 3.0 0.00 0.00 0.00 54 1043.6
20260509132609 56 260 2.0 3.0 0.00 0.00 0.00 52 1043.5
20260509132107 55 186 0.0 1.0 0.00 0.00 0.00 55 1043.7
20260509131602 55 232 2.0 4.0 0.00 0.00 0.00 52 1043.7
20260509131100 55 287 1.0 2.0 0.00 0.00 0.00 54 1043.5
20260509130555 54 250 1.0 2.0 0.00 0.00 0.00 51 1043.3
20260509130052 53 268 1.0 3.0 0.00 0.00 0.00 51 1043.5
20260509125548 53 282 2.0 4.0 0.00 0.00 0.00 52 1043.7
20260509125045 53 277 2.0 4.0 0.00 0.00 0.00 51 1043.4
20260509124541 53 219 1.0 7.0 0.00 0.00 0.00 51 1043.4
20260509124039 52 257 1.0 2.0 0.00 0.00 0.00 52 1043.3
20260509123537 52 229 3.0 4.0 0.00 0.00 0.00 51 1043.4
20260509123033 52 287 1.0 6.0 0.00 0.00 0.00 50 1043.6
20260509122529 52 320 2.0 6.0 0.00 0.00 0.00 50 1043.3
20260509122026 52 239 2.0 3.0 0.00 0.00 0.00 50 1043.2
20260509121523 52 273 4.0 4.0 0.00 0.00 0.00 50 1043.3
20260509121021 52 280 1.0 3.0 0.00 0.00 0.00 50 1042.9
20260509120519 52 284 2.0 3.0 0.00 0.00 0.00 50 1043.2
20260509120017 52 212 2.0 4.0 0.00 0.00 0.00 50 1043.0
20260509115513 52 245 1.0 3.0 0.00 0.00 0.00 50 1042.8
20260509115012 52 245 2.0 4.0 0.00 0.00 0.00 49 1042.7
20260509114509 51 225 2.0 2.0 0.00 0.00 0.00 51 1042.7
20260509114008 51 246 1.0 2.0 0.00 0.00 0.00 51 1042.7
20260509113505 50 286 3.0 4.0 0.00 0.00 0.00 52 1042.6
20260509113003 50 288 3.0 4.0 0.00 0.00 0.00 52 1042.4
20260509112459 49 282 2.0 3.0 0.00 0.00 0.00 53 1041.7
20260509111955 48 218 4.0 7.0 0.00 0.00 0.00 54 1041.2
20260509111454 48 210 0.0 1.0 0.00 0.00 0.00 54 1041.1
20260509110951 48 255 2.0 2.0 0.00 0.00 0.00 55 1040.8
20260509110447 48 215 0.0 1.0 0.00 0.00 0.00 54 1040.9
20260509105944 48 194 3.0 4.0 0.00 0.00 0.00 54 1040.8
20260509105443 48 205 1.0 2.0 0.00 0.00 0.00 55 1040.9
20260509104940 48 211 1.0 1.0 0.00 0.00 0.00 54 1040.9
20260509104437 47 180 1.0 1.0 0.00 0.00 0.00 56 1040.8
20260509103934 46 198 2.0 2.0 0.00 0.00 0.00 58 1041.0
20260509103431 45 181 0.0 1.0 0.00 0.00 0.00 61 1041.0
20260509102930 44 177 0.0 0.0 0.00 0.00 0.00 62 1041.1
20260509102427 44 190 0.0 1.0 0.00 0.00 0.00 63 1041.1
20260509101922 43 199 0.0 0.0 0.00 0.00 0.00 64 1041.1
20260509101419 43 189 0.0 0.0 0.00 0.00 0.00 65 1041.2
20260509100916 43 190 0.0 0.0 0.00 0.00 0.00 65 1041.0
20260509100414 43 194 0.0 0.0 0.00 0.00 0.00 65 1041.2
20260509095910 43 190 0.0 0.0 0.00 0.00 0.00 66 1041.2
20260509095408 42 192 0.0 0.0 0.00 0.00 0.00 67 1041.3
20260509094904 43 195 0.0 0.0 0.00 0.00 0.00 66 1041.4
20260509094400 43 195 0.0 0.0 0.00 0.00 0.00 66 1041.2
20260509093859 42 191 0.0 0.0 0.00 0.00 0.00 68 1041.3
20260509093355 41 195 0.0 0.0 0.00 0.00 0.00 69 1041.2
20260509092854 42 195 0.0 0.0 0.00 0.00 0.00 67 1041.2
20260509092351 43 195 0.0 0.0 0.00 0.00 0.00 67 1041.3
20260509091849 44 195 0.0 0.0 0.00 0.00 0.00 64 1041.2
20260509091346 45 211 0.0 0.0 0.00 0.00 0.00 60 1041.3
20260509090843 45 188 0.0 1.0 0.00 0.00 0.00 60 1041.2
20260509090341 45 196 0.0 0.0 0.00 0.00 0.00 60 1041.3
20260509085838 44 189 0.0 0.0 0.00 0.00 0.00 63 1041.4
20260509085335 43 194 0.0 0.0 0.00 0.00 0.00 65 1041.2
20260509084831 44 192 0.0 0.0 0.00 0.00 0.00 65 1041.5
20260509084328 44 198 0.0 0.0 0.00 0.00 0.00 64 1041.3
20260509083826 44 195 0.0 0.0 0.00 0.00 0.00 64 1041.3
20260509083323 45 195 0.0 0.0 0.00 0.00 0.00 64 1041.3
20260509082819 45 204 0.0 0.0 0.00 0.00 0.00 63 1041.5
20260509082316 46 195 0.0 0.0 0.00 0.00 0.00 61 1041.4
20260509081814 46 202 0.0 0.0 0.00 0.00 0.00 61 1041.3
20260509081310 46 191 0.0 0.0 0.00 0.00 0.00 59 1041.4
20260509080809 44 184 0.0 0.0 0.00 0.00 0.00 60 1041.2
20260509080306 44 191 0.0 0.0 0.00 0.00 0.00 65 1041.4
20260509075804 45 194 0.0 0.0 0.00 0.00 0.00 65 1041.4
20260509075301 45 197 0.0 0.0 0.00 0.00 0.00 64 1041.5
20260509074758 46 198 0.0 0.0 0.00 0.00 0.00 63 1041.6
20260509074256 47 196 0.0 0.0 0.00 0.00 0.00 60 1041.4
20260509073751 47 197 0.0 0.0 0.00 0.00 0.00 59 1041.5
20260509073248 47 195 0.0 0.0 0.00 0.00 0.00 60 1041.6
20260509072744 47 193 0.0 0.0 0.00 0.00 0.00 59 1041.6
20260509072241 48 189 0.0 0.0 0.00 0.00 0.00 58 1041.4
20260509071738 49 190 0.0 0.0 0.00 0.00 0.00 56 1041.6
20260509071236 49 195 0.0 0.0 0.00 0.00 0.00 53 1041.7
20260509070732 50 200 0.0 0.0 0.00 0.00 0.00 53 1041.7
20260509070229 50 193 0.0 0.0 0.00 0.00 0.00 52 1041.8
20260509065725 50 193 0.0 0.0 0.00 0.00 0.00 48 1041.9
20260509065221 48 192 0.0 0.0 0.00 0.00 0.00 52 1042.0
20260509064718 48 190 0.0 0.0 0.00 0.00 0.00 53 1042.1
20260509064216 49 190 0.0 0.0 0.00 0.00 0.00 51 1042.1
20260509063713 49 193 0.0 0.0 0.00 0.00 0.00 51 1042.2
20260509063209 50 194 0.0 0.0 0.00 0.00 0.00 50 1042.1
20260509062706 50 194 0.0 0.0 0.00 0.00 0.00 50 1042.3
20260509062203 50 194 0.0 0.0 0.00 0.00 0.00 49 1042.2
20260509061700 51 183 0.0 0.0 0.00 0.00 0.00 48 1042.2
20260509061158 53 189 0.0 0.0 0.00 0.00 0.00 46 1042.0
20260509060655 53 198 0.0 0.0 0.00 0.00 0.00 45 1042.1
20260509060151 54 200 0.0 0.0 0.00 0.00 0.00 43 1042.1
20260509055647 53 207 0.0 0.0 0.00 0.00 0.00 45 1042.0
20260509055143 54 188 0.0 0.0 0.00 0.00 0.00 44 1042.0
20260509054640 55 193 0.0 0.0 0.00 0.00 0.00 43 1042.1
20260509054137 56 209 0.0 0.0 0.00 0.00 0.00 42 1041.9
20260509053636 56 201 0.0 0.0 0.00 0.00 0.00 43 1042.0
20260509053133 57 209 0.0 2.0 0.00 0.00 0.00 41 1041.9
20260509052631 57 304 1.0 2.0 0.00 0.00 0.00 40 1042.1
20260509052128 57 263 0.0 2.0 0.00 0.00 0.00 41 1042.0
20260509051626 57 223 0.0 1.0 0.00 0.00 0.00 40 1042.2
20260509051123 57 197 0.0 0.0 0.00 0.00 0.00 40 1042.0
20260509050620 58 193 0.0 1.0 0.00 0.00 0.00 39 1042.1
20260509050115 58 236 1.0 2.0 0.00 0.00 0.00 39 1042.1
20260509045613 58 258 1.0 3.0 0.00 0.00 0.00 39 1042.4
20260509045110 59 275 1.0 2.0 0.00 0.00 0.00 38 1042.3
20260509044607 58 210 0.0 2.0 0.00 0.00 0.00 38 1042.2
20260509044104 59 192 1.0 2.0 0.00 0.00 0.00 37 1042.3
20260509043601 59 244 0.0 2.0 0.00 0.00 0.00 38 1042.0
20260509043056 59 203 0.0 1.0 0.00 0.00 0.00 38 1042.1
20260509042553 59 237 1.0 2.0 0.00 0.00 0.00 37 1042.1
20260509042049 59 321 0.0 2.0 0.00 0.00 0.00 37 1042.1
20260509041547 59 205 0.0 0.0 0.00 0.00 0.00 38 1041.8
20260509041044 59 289 1.0 2.0 0.00 0.00 0.00 37 1042.0
20260509040542 59 277 1.0 2.0 0.00 0.00 0.00 37 1041.8
20260509040038 59 254 1.0 1.0 0.00 0.00 0.00 38 1041.8
20260509035535 60 209 1.0 2.0 0.00 0.00 0.00 37 1042.0
20260509035032 60 202 0.0 1.0 0.00 0.00 0.00 38 1041.8
20260509034530 60 233 1.0 2.0 0.00 0.00 0.00 38 1041.9
20260509034027 60 200 1.0 2.0 0.00 0.00 0.00 38 1042.0
20260509033524 60 205 1.0 2.0 0.00 0.00 0.00 38 1041.9
20260509033021 60 279 2.0 2.0 0.00 0.00 0.00 39 1041.7
20260509032518 60 280 2.0 3.0 0.00 0.00 0.00 38 1041.7
20260509032016 60 271 1.0 3.0 0.00 0.00 0.00 38 1041.6
20260509031513 60 201 1.0 2.0 0.00 0.00 0.00 39 1041.6
20260509031010 60 249 2.0 2.0 0.00 0.00 0.00 38 1041.6
20260509030508 60 262 1.0 2.0 0.00 0.00 0.00 39 1041.5
20260509030004 60 204 0.0 1.0 0.00 0.00 0.00 40 1041.3
20260509025500 60 204 0.0 1.0 0.00 0.00 0.00 41 1041.2
20260509024956 59 208 0.0 0.0 0.00 0.00 0.00 42 1041.2
20260509024452 59 197 0.0 0.0 0.00 0.00 0.00 41 1041.2
20260509023944 60 198 0.0 0.0 0.00 0.00 0.00 41 1041.2
20260509023441 61 199 0.0 0.0 0.00 0.00 0.00 39 1041.2
20260509022938 61 212 0.0 0.0 0.00 0.00 0.00 39 1041.2
20260509022435 61 207 0.0 0.0 0.00 0.00 0.00 39 1041.0
20260509021932 61 207 0.0 0.0 0.00 0.00 0.00 40 1040.9
20260509021429 61 205 0.0 0.0 0.00 0.00 0.00 39 1040.8
20260509020926 62 197 0.0 0.0 0.00 0.00 0.00 38 1040.9
20260509020425 63 201 0.0 0.0 0.00 0.00 0.00 37 1040.7
20260509015921 64 189 0.0 2.0 0.00 0.00 0.00 36 1040.8
20260509015420 65 216 0.0 0.0 0.00 0.00 0.00 35 1040.7
20260509014916 66 204 0.0 2.0 0.00 0.00 0.00 33 1040.6
20260509014413 67 241 2.0 2.0 0.00 0.00 0.00 31 1040.6
20260509013909 67 280 2.0 2.0 0.00 0.00 0.00 31 1040.6
20260509013406 68 209 2.0 6.0 0.00 0.00 0.00 31 1040.7
20260509012902 68 316 2.0 3.0 0.00 0.00 0.00 31 1040.5
20260509012359 69 305 2.0 6.0 0.00 0.00 0.00 30 1040.7
20260509011856 68 269 5.0 14.0 0.00 0.00 0.00 28 1040.7
20260509011353 69 320 2.0 3.0 0.00 0.00 0.00 29 1040.5
20260509010851 69 266 1.0 3.0 0.00 0.00 0.00 29 1040.4
20260509010349 69 217 2.0 3.0 0.00 0.00 0.00 29 1040.3
20260509005845 69 279 1.0 6.0 0.00 0.00 0.00 29 1040.1
20260509005343 69 258 2.0 8.0 0.00 0.00 0.00 28 1040.1
20260509004843 70 286 1.0 3.0 0.00 0.00 0.00 28 1040.1
20260509004340 70 265 1.0 2.0 0.00 0.00 0.00 27 1040.1
20260509003838 70 201 1.0 2.0 0.00 0.00 0.00 27 1040.1
20260509003335 71 303 3.0 4.0 0.00 0.00 0.00 27 1040.3
20260509002832 71 235 1.0 3.0 0.00 0.00 0.00 27 1040.0
20260509002330 71 243 2.0 4.0 0.00 0.00 0.00 27 1039.9
20260509001827 71 221 2.0 2.0 0.00 0.00 0.00 27 1040.0
20260509001323 71 202 0.0 1.0 0.00 0.00 0.00 27 1040.1
20260509000821 71 211 1.0 4.0 0.00 0.00 0.00 28 1039.9
20260509000318 72 198 0.0 1.0 0.00 0.00 0.00 29 1040.0
20260508235814 71 256 1.0 2.0 0.00 0.00 0.00 27 1040.0
20260508235312 71 254 1.0 2.0 0.00 0.00 0.00 27 1040.1
20260508234809 71 238 2.0 2.0 0.00 0.00 0.00 27 1040.3
20260508234305 71 248 4.0 4.0 0.00 0.00 0.00 26 1040.3
20260508233803 72 298 3.0 4.0 0.00 0.00 0.00 25 1040.4
20260508233302 72 242 4.0 6.0 0.00 0.00 0.00 25 1040.5
20260508232759 72 284 2.0 3.0 0.00 0.00 0.00 25 1040.4
20260508232255 72 224 8.0 10.0 0.00 0.00 0.00 25 1040.4
20260508231754 73 292 4.0 4.0 0.00 0.00 0.00 25 1040.5
20260508231250 73 244 2.0 3.0 0.00 0.00 0.00 25 1040.5
20260508230747 73 300 3.0 4.0 0.00 0.00 0.00 24 1040.6
20260508230243 73 248 4.0 7.0 0.00 0.00 0.00 24 1040.6
20260508225741 73 256 4.0 6.0 0.00 0.00 0.00 24 1040.9
20260508225237 73 278 5.0 7.0 0.00 0.00 0.00 24 1040.8
20260508224735 74 220 4.0 6.0 0.00 0.00 0.00 25 1040.7
20260508224232 74 284 2.0 11.0 0.00 0.00 0.00 25 1040.8
20260508223730 74 234 4.0 6.0 0.00 0.00 0.00 24 1040.9
20260508223227 74 248 4.0 7.0 0.00 0.00 0.00 25 1040.9
20260508222724 74 265 4.0 6.0 0.00 0.00 0.00 24 1040.9
20260508222221 74 277 5.0 7.0 0.00 0.00 0.00 24 1041.0
20260508221717 74 332 3.0 3.0 0.00 0.00 0.00 24 1041.0
20260508221214 74 264 2.0 3.0 0.00 0.00 0.00 24 1041.2
20260508220710 73 295 3.0 3.0 0.00 0.00 0.00 23 1041.0
20260508220207 73 278 3.0 4.0 0.00 0.00 0.00 24 1041.2
20260508215703 73 253 6.0 7.0 0.00 0.00 0.00 23 1041.1
20260508215159 73 243 4.0 9.0 0.00 0.00 0.00 24 1041.1
20260508214656 74 270 5.0 14.0 0.00 0.00 0.00 23 1041.2
20260508214154 73 273 3.0 9.0 0.00 0.00 0.00 24 1041.5
20260508213651 73 273 8.0 9.0 0.00 0.00 0.00 22 1041.6
20260508213147 73 299 5.0 7.0 0.00 0.00 0.00 23 1041.4
20260508212643 72 342 3.0 4.0 0.00 0.00 0.00 26 1041.4
20260508212140 72 169 1.0 3.0 0.00 0.00 0.00 25 1041.5
20260508211635 72 262 3.0 9.0 0.00 0.00 0.00 25 1041.6
20260508211132 72 267 5.0 7.0 0.00 0.00 0.00 22 1041.8
20260508210629 74 192 5.0 6.0 0.00 0.00 0.00 23 1041.7
20260508210126 72 297 2.0 6.0 0.00 0.00 0.00 23 1041.8
20260508205623 73 283 6.0 19.0 0.00 0.00 0.00 25 1041.8
20260508205119 71 279 6.0 13.0 0.00 0.00 0.00 22 1041.8
20260508204616 72 261 4.0 11.0 0.00 0.00 0.00 23 1041.9
20260508204112 73 240 2.0 6.0 0.00 0.00 0.00 24 1041.8
20260508203608 74 263 2.0 3.0 0.00 0.00 0.00 24 1041.9
20260508203104 74 284 2.0 9.0 0.00 0.00 0.00 24 1042.0
20260508202601 74 151 2.0 6.0 0.00 0.00 0.00 23 1042.2
20260508202058 74 285 4.0 10.0 0.00 0.00 0.00 24 1042.3
20260508201555 75 329 7.0 9.0 0.00 0.00 0.00 25 1042.5
20260508201051 74 245 6.0 7.0 0.00 0.00 0.00 24 1042.5
20260508200548 73 295 2.0 4.0 0.00 0.00 0.00 27 1042.4
20260508200044 72 273 4.0 7.0 0.00 0.00 0.00 25 1042.6
20260508195541 72 275 5.0 10.0 0.00 0.00 0.00 25 1042.7
20260508195037 70 299 4.0 4.0 0.00 0.00 0.00 25 1042.7
20260508194534 71 206 2.0 2.0 0.00 0.00 0.00 26 1042.7
20260508194032 72 219 9.0 10.0 0.00 0.00 0.00 22 1043.0
20260508193528 72 272 5.0 7.0 0.00 0.00 0.00 24 1043.2
20260508193025 73 256 5.0 7.0 0.00 0.00 0.00 23 1042.8
20260508192521 72 339 2.0 3.0 0.00 0.00 0.00 26 1043.0
20260508192019 71 240 2.0 10.0 0.00 0.00 0.00 26 1043.2
20260508191515 72 271 6.0 7.0 0.00 0.00 0.00 28 1043.4
20260508191012 71 229 1.0 6.0 0.00 0.00 0.00 26 1043.5
20260508190509 71 288 4.0 4.0 0.00 0.00 0.00 24 1043.6
20260508190005 70 315 3.0 9.0 0.00 0.00 0.00 26 1043.7
20260508185503 71 313 7.0 11.0 0.00 0.00 0.00 23 1043.5
20260508185000 70 202 6.0 11.0 0.00 0.00 0.00 24 1043.9
20260508184458 70 208 7.0 8.0 0.00 0.00 0.00 24 1043.6
20260508183954 70 294 2.0 14.0 0.00 0.00 0.00 26 1043.8
20260508183450 70 240 5.0 7.0 0.00 0.00 0.00 26 1043.8
20260508182946 70 292 4.0 7.0 0.00 0.00 0.00 26 1043.9
20260508182443 70 304 4.0 8.0 0.00 0.00 0.00 27 1044.1
20260508181943 70 192 4.0 10.0 0.00 0.00 0.00 25 1044.2
20260508181440 69 238 3.0 7.0 0.00 0.00 0.00 25 1044.2
20260508180938 70 305 4.0 7.0 0.00 0.00 0.00 25 1044.3
20260508180434 70 237 2.0 4.0 0.00 0.00 0.00 26 1044.3
20260508175930 69 271 1.0 8.0 0.00 0.00 0.00 26 1044.3
20260508175427 69 190 2.0 3.0 0.00 0.00 0.00 30 1044.6
20260508174925 69 285 5.0 10.0 0.00 0.00 0.00 25 1044.6
20260508174422 68 205 0.0 4.0 0.00 0.00 0.00 28 1044.6
20260508173919 68 226 6.0 10.0 0.00 0.00 0.00 25 1044.8
20260508173416 68 265 4.0 11.0 0.00 0.00 0.00 25 1045.0
20260508172912 68 301 5.0 7.0 0.00 0.00 0.00 24 1045.0
20260508172410 68 270 3.0 7.0 0.00 0.00 0.00 26 1045.1
20260508171905 68 216 5.0 8.0 0.00 0.00 0.00 24 1045.2
20260508171402 69 316 4.0 7.0 0.00 0.00 0.00 26 1045.3
20260508170858 68 308 4.0 4.0 0.00 0.00 0.00 27 1045.5
20260508170356 67 243 6.0 8.0 0.00 0.00 0.00 26 1045.6
20260508165852 67 248 2.0 6.0 0.00 0.00 0.00 26 1045.6
20260508165351 67 280 3.0 10.0 0.00 0.00 0.00 27 1045.6
20260508164846 67 200 3.0 6.0 0.00 0.00 0.00 26 1045.7
20260508164343 66 210 7.0 13.0 0.00 0.00 0.00 29 1045.8